Probability
89 83 79 80 74 61 50 40 30 25 28 31 29 22 12 6 3 1 0 0 0 0 0 0 0 0 0 0 1 2 4 4 2 1 0 0 0 0 0 0 0 0 0
94 91 89 90 87 79 68 56 46 41 45 50 46 34 22 12 5 1 0 0 0 0 0 0 0 0 1 2 3 4 5 5 5 3 1 0 0 0 0 0 0 0 0
87 86 86 88 92 91 86 77 68 61 60 61 54 43 34 22 10 3 2 1 0 0 0 0 0 0 1 4 7 8 8 7 6 7 5 1 0 0 0 0 0 0 0
57 60 63 68 79 91 93 88 81 74 69 65 60 52 45 33 16 6 3 2 0 0 0 0 0 0 1 4 7 8 9 7 7 10 8 3 0 0 0 0 0 0 0
26 31 37 43 59 80 90 90 88 85 82 75 66 57 51 38 19 6 2 1 0 0 0 0 1 1 3 7 10 9 7 5 7 12 11 4 0 0 0 0 0 0 0
11 13 15 20 34 54 72 83 87 87 85 74 54 42 37 26 14 5 1 0 0 0 0 0 2 3 5 8 12 13 10 7 9 14 13 6 2 0 0 0 0 0 0
3 3 3 5 12 25 44 65 76 78 74 60 42 27 15 8 5 2 0 0 0 0 0 0 1 3 3 4 6 10 12 11 10 12 10 6 4 3 1 0 0 0 0
0 0 0 0 2 8 21 39 56 65 60 47 35 21 6 0 0 0 0 0 0 0 0 0 0 1 1 0 1 4 8 10 12 11 7 5 4 4 2 1 0 0 0
0 0 0 0 0 2 7 16 30 47 51 40 26 14 4 0 0 0 0 0 0 0 0 0 0 0 0 0 0 1 3 7 13 15 11 5 2 2 2 1 1 0 0
0 0 0 0 0 0 1 4 15 35 46 40 29 16 6 1 0 0 0 0 0 0 0 0 0 0 0 1 2 1 1 3 8 13 12 5 0 0 0 0 0 0 0
0 0 0 0 0 0 0 2 10 26 39 40 37 30 19 10 4 1 0 0 0 0 0 0 0 0 0 2 3 1 0 0 2 4 5 2 0 0 0 0 0 0 0
0 0 0 0 0 0 0 1 4 13 23 26 28 30 27 17 8 2 0 0 0 0 0 0 0 0 0 1 1 1 0 0 0 0 0 0 0 0 0 0 0 0 0
0 0 0 0 0 0 0 0 1 3 7 8 11 15 15 10 4 1 0 0 0 0 0 0 0 0 0 1 0 0 0 0 0 0 0 0 0 0 0 0 0 0 0
0 0 0 0 0 0 0 0 0 0 0 0 1 3 3 1 0 0 0 0 0 0 0 0 0 0 0 0 0 0 0 0 0 0 0 0 0 0 0 0 0 0 0
0 0 0 0 0 0 0 0 0 0 0 0 0 0 0 0 0 0 0 0 0 0 0 0 0 0 0 0 0 0 0 0 0 0 0 0 0 0 0 0 0 0 0
0 0 0 0 0 0 0 0 0 0 0 0 0 0 0 0 0 0 0 0 0 0 0 0 0 0 0 0 0 0 0 0 0 0 0 0 0 0 0 0 0 0 0
0 0 0 0 0 0 0 0 0 0 0 0 0 0 0 0 0 0 0 0 0 0 0 0 0 0 0 0 0 0 0 0 0 0 0 0 0 0 0 0 0 0 0
0 0 0 0 0 0 0 0 0 0 0 0 0 0 0 0 0 0 0 0 0 0 0 0 0 0 0 0 0 0 0 0 0 0 0 0 0 0 0 0 0 0 0
0 0 0 0 0 0 0 0 0 0 0 0 0 0 0 0 0 0 0 0 0 0 0 0 0 0 0 0 0 0 0 0 0 0 0 0 0 0 0 0 0 0 0
0 0 0 0 0 0 0 0 0 0 0 0 0 0 0 0 0 0 0 0 0 0 0 0 0 0 0 0 0 0 0 0 0 0 0 0 0 0 0 0 0 0 0
0 0 0 0 0 0 0 0 0 0 0 0 0 0 0 0 0 0 0 0 0 0 0 0 0 0 0 0 0 0 0 0 0 0 0 0 0 0 0 0 0 0 0
0 0 0 0 0 0 0 0 0 0 0 0 0 0 0 0 0 0 0 0 0 0 0 0 0 0 0 0 0 0 0 0 0 0 0 0 0 0 0 0 0 0 0
0 0 0 0 0 0 0 0 0 0 0 0 0 0 0 0 0 0 0 0 0 0 0 0 0 0 0 0 0 0 0 0 0 0 0 0 0 0 0 0 0 0 0
0 0 0 0 0 0 0 0 0 0 0 0 0 0 0 0 0 0 0 0 0 0 0 0 0 0 0 0 0 0 0 0 0 0 0 0 0 0 0 0 0 0 0
0 0 0 0 0 0 0 0 0 0 0 0 0 0 0 0 0 0 0 0 0 0 0 0 0 0 0 0 0 0 0 0 0 0 0 0 0 0 0 0 0 0 0
0 0 0 0 0 0 0 0 0 0 0 0 0 0 0 0 0 0 0 0 0 0 0 0 0 0 0 0 0 0 0 0 0 0 0 0 0 0 0 0 0 0 0
Wind_Speed
7 7 6 6 7 6 7 8 8 9 10 10 10 11 11 11 10 10 7 16 17 18 18 18 17 17 17 17 18 17 18 19 20 20 20 21 21 20 20 19 19 18 17
7 7 8 7 7 8 8 8 10 9 8 8 10 11 11 10 10 10 10 11 17 17 18 19 19 18 17 17 18 18 18 18 19 19 20 20 20 21 21 20 20 19 19
8 8 7 7 8 8 9 8 10 8 7 7 9 10 8 9 10 11 11 9 9 13 16 18 18 18 18 18 19 20 19 18 18 19 20 20 20 20 19 19 19 19 19
8 7 6 8 8 7 7 8 8 7 7 8 8 7 7 7 11 11 9 9 8 8 11 15 17 18 19 20 21 21 21 20 20 19 20 21 21 20 19 18 18 18 18
7 6 6 7 7 6 6 7 7 7 8 8 8 7 6 7 8 9 10 10 9 9 9 11 15 16 19 21 21 21 21 20 20 21 21 22 22 21 20 20 19 19 19
5 4 5 6 6 5 6 6 8 8 6 6 7 6 6 7 6 7 10 9 8 11 11 11 9 10 16 17 19 20 21 21 20 22 23 23 23 22 21 20 19 19 20
4 4 4 5 5 5 6 7 7 8 7 4 3 4 5 7 8 8 8 8 10 11 10 10 8 7 7 13 16 19 21 23 21 21 22 23 23 22 21 20 19 20 20
5 5 5 6 6 5 7 7 6 4 4 5 5 4 4 3 5 6 6 7 8 7 8 10 10 10 9 7 10 17 19 21 21 20 20 21 22 22 21 21 20 20 20
5 5 6 6 7 7 7 8 7 8 6 6 6 5 4 6 3 2 3 4 5 5 6 6 9 10 10 8 8 9 11 11 12 14 16 18 19 19 19 20 20 20 19
7 7 8 8 8 7 9 9 8 8 8 7 6 7 6 4 4 2 1 2 3 4 5 4 5 6 5 4 3 4 6 5 5 5 6 8 12 15 17 19 21 21 20
7 8 9 9 9 8 9 10 9 9 8 8 7 6 7 6 6 5 4 2 2 2 2 3 3 3 2 1 1 2 3 7 8 8 7 6 4 4 10 15 18 20 21
5 7 8 8 9 8 9 8 8 10 9 9 8 6 6 5 6 6 7 5 3 2 0 2 2 2 2 1 1 6 10 9 9 8 8 7 6 6 4 2 6 13 18
5 7 7 7 7 8 8 8 7 8 8 9 9 7 6 5 4 5 6 5 4 2 1 2 3 3 3 3 3 11 12 10 9 8 7 6 7 8 8 8 6 4 2
6 8 9 8 8 8 7 6 5 6 6 7 8 7 5 5 5 5 5 5 3 2 1 2 2 3 3 4 6 8 8 12 11 8 6 5 6 8 9 9 9 8 8
5 7 8 9 9 7 6 5 4 5 5 6 6 6 4 5 6 6 5 5 5 4 3 2 2 3 3 4 5 6 7 11 11 9 6 5 6 7 8 9 9 8 8
4 6 8 9 9 7 6 4 4 4 4 3 3 4 4 4 5 5 5 4 4 4 4 2 2 2 2 5 7 7 8 11 13 11 8 8 9 9 9 9 9 9 9
4 5 7 8 8 8 7 5 4 3 1 2 1 2 3 4 4 4 4 4 2 3 7 3 2 1 3 5 6 6 7 7 8 14 13 12 12 11 11 11 11 11 11
4 4 5 6 7 8 7 6 5 4 4 5 4 3 4 4 5 5 5 4 3 4 7 7 3 3 5 5 5 6 5 6 7 11 12 11 11 11 10 11 11 11 11
3 3 3 4 6 7 7 7 7 7 8 8 7 6 5 6 6 4 5 5 5 5 5 8 5 4 5 5 5 5 5 4 5 6 8 9 9 9 10 10 11 11 11
3 2 1 2 4 5 6 7 7 7 8 8 7 6 5 5 5 5 6 7 8 8 8 8 6 4 4 4 4 3 3 3 4 5 5 5 6 7 8 9 10 10 10
4 3 2 1 3 3 4 5 5 5 6 7 7 6 5 7 7 6 7 8 8 8 7 8 6 5 4 4 3 2 2 2 3 4 3 4 4 4 5 7 9 11 10
5 5 4 1 1 1 3 5 4 3 4 5 5 5 7 9 14 15 14 11 8 8 8 6 5 5 3 2 2 2 2 2 2 4 3 3 3 4 4 5 8 10 10
7 6 5 4 2 2 4 7 6 3 3 3 4 5 5 6 8 9 12 14 12 10 8 7 7 4 3 2 3 3 2 2 2 3 3 3 4 4 4 5 9 10 10
7 7 6 6 4 3 7 9 7 4 4 3 4 5 6 5 4 8 9 10 9 8 5 5 6 4 2 2 1 2 2 2 2 3 4 3 3 3 3 3 8 11 11
7 7 6 7 6 5 11 13 10 5 5 5 4 4 5 6 7 11 11 11 10 8 11 13 12 10 10 8 3 2 2 2 2 3 4 3 3 3 2 2 4 10 11
8 8 7 7 7 7 12 15 13 7 6 4 4 5 6 7 8 9 9 10 10 6 6 8 9 10 9 10 11 5 2 2 2 2 4 3 3 3 3 2 3 5 7
Wind_Direction
235 235 239 240 243 245 244 242 243 242 243 243 242 241 244 243 244 246 251 257 260 262 262 262 264 266 263 251 239 235 233 230 227 226 225 223 222 223 223 222 221 220 220
236 234 237 238 241 243 246 246 244 241 238 236 239 239 242 242 244 245 248 255 258 259 260 261 261 262 255 247 244 242 239 234 230 227 227 227 225 225 225 224 223 221 221
244 245 243 244 244 242 246 250 249 242 241 239 242 242 242 243 243 244 247 251 256 256 256 260 262 259 252 247 245 243 241 238 232 229 229 229 228 227 226 224 222 221 221
248 252 254 256 254 247 243 244 245 240 239 239 240 240 239 243 247 245 244 247 254 261 261 259 259 259 257 256 254 248 243 240 237 232 230 230 229 228 226 224 223 220 219
255 246 251 260 263 257 248 245 241 233 232 233 235 236 236 239 245 249 248 247 249 256 261 261 257 255 258 261 260 258 253 246 237 233 232 232 230 228 225 224 222 221 221
256 250 252 260 265 262 257 247 247 240 233 232 241 244 237 236 237 240 246 247 244 248 253 257 259 256 257 262 262 259 257 252 241 234 234 232 230 228 225 223 221 221 222
296 286 275 273 265 256 253 249 245 243 238 212 210 248 249 238 238 239 239 241 246 249 253 257 260 262 259 256 258 256 252 250 244 237 235 233 229 226 224 222 218 218 221
315 307 292 285 277 267 260 253 242 240 232 194 197 219 261 273 240 238 243 244 249 252 257 260 261 259 256 252 250 250 250 247 244 242 239 236 232 226 222 221 216 217 221
307 298 291 286 281 272 265 252 239 235 240 219 200 197 207 228 260 268 247 249 250 248 257 267 271 266 257 249 250 248 253 251 251 252 250 243 237 229 222 219 215 216 220
312 308 300 294 288 280 272 262 247 234 231 229 212 212 215 188 195 254 269 249 241 248 262 276 276 272 251 228 233 258 269 276 285 297 298 278 252 233 223 220 218 216 218
305 305 303 299 292 284 278 270 258 244 231 228 217 206 213 212 204 215 245 246 256 253 267 289 285 282 273 199 193 220 92 74 64 49 33 17 354 266 236 231 227 222 221
300 297 305 303 297 290 284 278 269 257 244 236 226 208 196 194 198 203 221 229 239 248 282 9 5 7 12 5 174 111 88 77 67 57 49 42 37 39 33 336 255 238 231
308 308 312 308 302 294 287 281 274 265 250 240 230 219 211 208 180 184 203 214 211 200 104 45 28 36 38 21 53 78 74 69 63 59 57 54 52 56 55 48 34 13 289
296 301 308 304 299 298 293 283 274 267 253 244 236 223 210 209 202 194 189 183 180 165 135 115 35 34 52 55 63 70 69 63 59 57 60 64 69 69 66 62 55 46 40
289 302 310 312 309 304 300 293 279 273 257 245 236 220 208 206 206 206 198 185 175 173 158 138 94 29 47 73 78 77 71 60 53 50 59 82 90 83 75 66 56 45 36
285 310 320 323 322 322 320 311 294 282 263 252 232 216 211 208 206 197 188 176 164 162 137 103 86 48 62 93 89 83 74 61 46 42 59 89 100 90 75 62 52 42 33
293 314 323 326 330 339 343 344 338 336 353 359 322 202 179 162 153 141 133 130 143 143 123 105 75 59 85 92 85 77 67 60 49 46 59 78 90 89 81 71 61 53 45
285 305 320 327 333 345 356 4 14 28 38 36 30 72 97 104 101 105 106 108 118 119 126 123 93 69 72 74 82 73 60 58 53 51 60 71 81 85 81 72 64 55 47
277 303 321 331 339 354 16 29 40 52 55 50 43 49 60 75 73 84 103 112 108 105 104 110 96 68 71 64 75 66 56 44 46 47 53 56 63 74 74 68 60 51 41
243 267 294 327 345 4 34 46 51 59 66 60 50 52 60 78 95 109 117 121 117 110 105 105 99 81 70 59 71 69 64 37 35 28 37 43 46 63 65 60 49 37 27
214 208 207 319 353 14 57 72 67 74 78 73 59 58 78 106 114 117 121 120 119 115 110 106 101 89 70 62 66 54 77 61 54 24 12 32 28 41 44 41 35 22 14
199 195 193 207 334 43 104 131 136 118 101 96 89 75 80 86 88 86 86 87 101 116 116 108 103 101 94 87 87 81 82 71 45 10 4 16 24 35 34 39 32 30 22
193 198 195 195 221 229 169 169 168 132 107 110 119 109 94 80 88 93 81 73 67 78 112 125 122 129 134 147 133 116 106 94 78 358 357 14 11 21 21 28 29 35 32
196 199 196 195 202 221 188 174 157 114 97 83 95 116 113 93 94 106 94 80 67 58 80 95 110 110 110 146 155 131 123 100 43 33 18 16 354 357 351 3 22 29 30
204 196 190 188 189 194 177 164 147 126 104 78 63 80 104 95 100 109 104 98 87 76 76 80 80 75 67 56 66 105 98 100 73 25 18 9 349 334 323 332 359 11 13
215 199 190 187 180 177 175 163 148 136 119 104 79 69 87 103 103 105 109 112 106 96 94 83 67 54 52 47 44 51 75 100 90 47 15 356 352 345 343 354 349 1 4